THORAD AGENA D DEB, 42553

Orbit data source: Space-Track

THORAD AGENA D DEB, 42553 is space debris in SSO originally from a launch on Wed, 08 Apr 1970 UTC launched from the Air Force Western Test Range (AFWTR). Debris objects in space refer to the collection of defunct objects orbiting the Earth. Examples of debris include non-operational satellites, rocket bodies, and fragments generated from explosions, collisions, or faulty payload assembly.

Loading next visibility...
Identifier
42553, 1970-025TK
Orbit
SSO
Country
Flag of USUS
Related business
Manufacturer
Unknown
Mission
Spacecraft
Bus & Motor
Unknown
Mass
Unknown
Launch date (UTC)
1970-04-08 (56 years ago)
Launch vehicle
Unknown
Launch site
Air Force Western Test Range (AFWTR)
Object type
Payload
Rocket body
Debris
Shape & HBR
Unknown shape, 0.1 m
Radar Cross Section
Small (<0.1 m²)

Expand to show TLE details & history
Last TLE update: 4 days ago

TLE from 4 days ago
0 THORAD AGENA D DEB
1 42553U 70025TK  26119.21310227  .00000016  00000-0  15336-3 0  9998
2 42553 100.0718 134.6366 0128465  61.4127 299.9842 13.11035025549141
Epoch: 2026-04-29T05:06Z
TLE epoch observation values (Epoch: 2026-04-29T05:06:52.036Z)
Latitude
0.00006°
Longitude
-159.25752°
Altitude
1,174.042 km
Speed
7.289 km/s
True Right ascension
08h 58m 32s
True Declination
0° 00' 00"
Sunlit
Object was in daylight at epoch
Visualization orbit readout
Latitude
Unknown
Longitude
Unknown
Altitude
Unknown
Speed
Unknown
Apparent Right ascension
Unknown
Apparent Declination
Unknown
Sunlit
N/A
Visualization observer readout
Local Sidereal Time
13:00:11
Azimuth
Unknown
Elevation
Unknown
Doppler factor
Unknown
Orbital elements
Apogee altitude
1,314.095 km
Perigee altitude
1,118.965 km
Semi-major axis
7,594.667 km
Eccentricity
0.01285
Inclination
100.0718°
RAAN
134.6366°
Arg. of periapsis
61.4127°
True anomaly
298.69892°
Mean anomaly
299.9842°
Eccentric anomaly
299.34258°
Mean motion
3.27929 °/min
Orbital period
109.78 mins
BSTAR
0.00015336
Loading maneuver chart data...
Computing Atmospheric mass density...

Documentation

Showing up to 5 results
|